Location: Orange
(33.2833°S, 149.1000°E)
Time: 14:56:38
(UTC+11:00)

Envisat - Pass Details

Date: 29 September 2022
Orbit: 762 x 764 km, 98.3° (Epoch: 02 December)

Event Time Altitude Azimuth Distance (km) Brightness Sun altitude
Exits shadow 03:34:06 71° 36° (NE) 813 3.0 -27.3°
Maximum altitude 03:34:38 83° 103° (ESE) 782 2.9 -27.2°
Drops below altitude 10° 03:39:46 10° 191° (S) 2,326 5.6 -26.2°
Sets 03:42:05 0° 191° (S) 3,259 6.4 -25.7°
